Weather History for Shemya, AK

Change the Weather History Date:

Wednesday, December 19, 2012

  Actual Average Record
Temperature  
Mean Temperature 32 °F -  
Max Temperature 41 °F 34 °F 41 °F (1996)
Min Temperature 23 °F 29 °F 19 °F (1974)
Degree Days  
Heating Degree Days 33    
Moisture  
Dew Point 41 °F    
Average Humidity 100    
Maximum Humidity 100    
Minimum Humidity 75    
Precipitation  
Precipitation 0.00 in - - ()
Sea Level Pressure  
Sea Level Pressure 29.48 in    
Wind  
Wind Speed 31 mph (SSE)    
Max Wind Speed 55 mph    
Max Gust Speed 68 mph    
Visibility 2 miles    
Events Fog , Rain , Snow    
Averages and records for this station are not official NWS values.
T = Trace of Precipitation, MM = Missing Value Source: NWS Daily Summary

Daily Weather History Graph

Daily Weather History Graph

Search for Another Location

Airport:

Trip Planner

Search our weather history database for the weather conditions in past years. The results will help you decide how hot, cold, wet, or windy it might be!

Date:

Astronomy

Dec. 18, 2012 Rise Set
Actual Time 10:31 AM HAST 6:09 PM HAST
Civil Twilight 9:50 AM HAST 6:51 PM HAST
Nautical Twilight 9:05 AM HAST 7:35 PM HAST
Astronomical Twilight 8:23 AM HAST 8:17 PM HAST
Moon 1:53 PM HAST (12/19) 1:43 AM HAST (12/19)
Length of Visible Light 9h 01m
Length of Day
7h 37m
Waxing Crescent, 47% of the Moon is Illuminated
Dec 19
Waxing Crescent
Dec 19
First Quarter
Dec 28
Full
Jan 4
Last Quarter
Jan 11
New

Hourly Weather History & Observations

Time (HAST) Temp. Windchill Dew Point Humidity Pressure Visibility Wind Dir Wind Speed Gust Speed Precip Events Conditions
12:56 AM 37.0 °F 21.5 °F - N/A% 29.89 in 4.0 mi East 50.6 mph 67.9 mph N/A Snow Light Snow
1:56 AM 37.0 °F 20.9 °F - N/A% 29.80 in 4.0 mi ESE 55.2 mph 65.6 mph N/A Snow Light Snow
2:43 AM 39.2 °F 24.3 °F - N/A% 29.76 in 2.5 mi ESE 52.9 mph 62.1 mph N/A   Unknown
2:54 AM 39.2 °F 24.5 °F - N/A% 29.75 in 2.5 mi ESE 50.6 mph 61.0 mph N/A   Overcast
2:56 AM 39.0 °F 24.1 °F - N/A% 29.75 in 2.5 mi ESE 51.8 mph 61.0 mph N/A   Overcast
3:08 AM 39.2 °F 24.3 °F - N/A% 29.75 in - ESE 52.9 mph 59.8 mph N/A   Overcast
3:13 AM 39.2 °F 24.4 °F - N/A% 29.73 in 2.5 mi ESE 51.8 mph 59.8 mph N/A   Overcast
3:21 AM 39.2 °F 24.8 °F - N/A% 29.72 in - ESE 48.3 mph 64.4 mph N/A   Overcast
3:56 AM 39.9 °F 25.6 °F - N/A% 29.70 in 2.5 mi ESE 50.6 mph 61.0 mph N/A   Overcast
4:04 AM 41.0 °F 27.3 °F - N/A% 29.69 in - SE 48.3 mph 59.8 mph N/A   Overcast
4:37 AM 41.0 °F 27.5 °F - N/A% 29.64 in - ESE 47.2 mph 59.8 mph N/A   Overcast
4:56 AM 41.0 °F 27.5 °F - N/A% 29.63 in 3.0 mi SE 47.2 mph 54.1 mph N/A   Overcast
5:56 AM 42.1 °F 30.3 °F - N/A% 29.60 in 3.0 mi SE 36.8 mph 47.2 mph N/A   Overcast
6:08 AM 42.8 °F 31.6 °F 42.8 °F 100% 29.59 in 2.5 mi SE 34.5 mph 42.6 mph N/A   Overcast
6:46 AM 42.8 °F 31.3 °F 42.8 °F 100% 29.56 in - SE 36.8 mph 44.9 mph N/A   Overcast
6:56 AM 42.1 °F 31.0 °F 42.1 °F 100% 29.57 in 2.5 mi SE 32.2 mph 41.4 mph N/A   Overcast
7:56 AM 43.0 °F 33.8 °F 43.0 °F 100% 29.56 in 2.0 mi SSE 23.0 mph 29.9 mph N/A   Overcast
8:12 AM 42.8 °F 33.1 °F 42.8 °F 100% 29.55 in 2.5 mi SSE 25.3 mph - N/A   Overcast
8:56 AM 43.0 °F 33.5 °F 43.0 °F 100% 29.54 in 1.8 mi SSE 24.2 mph 32.2 mph N/A   Overcast
9:19 AM 42.8 °F 32.9 °F 42.8 °F 100% 29.52 in - SSE 26.5 mph 31.1 mph N/A   Overcast
9:35 AM 42.8 °F 32.7 °F 42.8 °F 100% 29.51 in 1.5 mi SSE 27.6 mph 35.7 mph N/A   Overcast
9:44 AM 42.8 °F 32.5 °F 42.8 °F 100% 29.50 in - SSE 28.8 mph 41.4 mph N/A   Overcast
9:56 AM 43.0 °F 32.5 °F 43.0 °F 100% 29.50 in 2.0 mi SSE 29.9 mph 36.8 mph N/A   Overcast
10:07 AM 42.8 °F 32.3 °F 42.8 °F 100% 29.50 in 1.5 mi SSE 29.9 mph 36.8 mph N/A   Overcast
10:16 AM 42.8 °F 32.1 °F 42.8 °F 100% 29.50 in - SSE 31.1 mph 38.0 mph N/A   Overcast
10:25 AM 42.8 °F 32.5 °F 42.8 °F 100% 29.50 in 1.5 mi SSE 28.8 mph 35.7 mph N/A   Overcast
10:35 AM 42.8 °F 31.6 °F 42.8 °F 100% 29.50 in - SSE 34.5 mph 39.1 mph N/A   Overcast
10:52 AM 42.8 °F 32.1 °F 42.8 °F 100% 29.50 in 1.8 mi SSE 31.1 mph - N/A   Overcast
10:56 AM 43.0 °F 32.7 °F 43.0 °F 100% 29.50 in 1.8 mi SSE 28.8 mph - N/A   Overcast
11:07 AM 42.8 °F 32.7 °F 42.8 °F 100% 29.50 in 1.2 mi SSE 27.6 mph 36.8 mph N/A   Overcast
11:12 AM 42.8 °F 32.5 °F 42.8 °F 100% 29.50 in 0.8 mi SSE 28.8 mph - N/A   Mist
11:25 AM 42.8 °F 32.9 °F 42.8 °F 100% 29.50 in 1.0 mi SSE 26.5 mph 33.4 mph N/A   Overcast
11:34 AM 42.8 °F 33.1 °F 42.8 °F 100% 29.50 in 1.5 mi SSE 25.3 mph - N/A   Overcast
11:56 AM 42.1 °F 32.3 °F 42.1 °F 100% 29.50 in 1.2 mi South 24.2 mph 32.2 mph N/A   Overcast
12:00 PM 42.8 °F 34.3 °F 42.8 °F 100% 29.51 in 1.8 mi South 19.6 mph 32.2 mph N/A   Overcast
12:05 PM 42.8 °F 34.8 °F 42.8 °F 100% 29.50 in 1.2 mi South 17.3 mph - N/A   Overcast
12:15 PM 42.8 °F 35.8 °F 42.8 °F 100% 29.51 in 0.8 mi South 13.8 mph - N/A Rain Light Rain
12:22 PM 42.8 °F 35.1 °F 42.8 °F 100% 29.51 in 0.5 mi South 16.1 mph - N/A Fog , Rain Light Rain
12:25 PM 42.8 °F 35.1 °F 42.8 °F 100% 29.51 in 0.8 mi South 16.1 mph - N/A Rain Light Rain
12:29 PM 42.8 °F 34.5 °F 42.8 °F 100% 29.50 in 1.0 mi South 18.4 mph - N/A Rain Light Rain
12:37 PM 42.8 °F 34.5 °F 42.8 °F 100% 29.50 in 0.5 mi South 18.4 mph - N/A Fog , Rain Light Rain
12:56 PM 42.1 °F 34.2 °F 42.1 °F 100% 29.50 in 0.5 mi South 16.1 mph - N/A Fog , Rain Light Rain
1:13 PM 42.8 °F 37.5 °F 42.8 °F 100% 29.50 in 0.5 mi SSE 9.2 mph - N/A Fog , Rain Light Rain
1:24 PM 42.8 °F 35.8 °F 42.8 °F 100% 29.50 in 1.2 mi South 13.8 mph - N/A Rain Light Rain
1:35 PM 41.0 °F 35.8 °F 41.0 °F 100% 29.50 in 0.8 mi South 8.1 mph - N/A   Mist
1:47 PM 41.0 °F 34.7 °F 41.0 °F 100% 29.50 in 0.5 mi South 10.4 mph - N/A Fog , Rain Light Rain
1:56 PM 41.0 °F 32.2 °F 41.0 °F 100% 29.49 in 1.0 mi SSE 18.4 mph - N/A Rain Light Rain
2:12 PM 41.0 °F 30.5 °F 41.0 °F 100% 29.47 in 1.5 mi SSE 26.5 mph - N/A   Overcast
2:15 PM 41.0 °F 30.5 °F 41.0 °F 100% 29.48 in - South 26.5 mph 31.1 mph N/A   Overcast
2:22 PM 41.0 °F 32.2 °F 41.0 °F 100% 29.48 in 4.0 mi South 18.4 mph 31.1 mph N/A   Overcast
2:32 PM 41.0 °F 34.7 °F 41.0 °F 100% 29.49 in 1.8 mi South 10.4 mph - N/A   Overcast
2:41 PM 41.0 °F 37.1 °F 41.0 °F 100% 29.48 in 1.5 mi South 5.8 mph - N/A   Overcast
2:44 PM 41.0 °F 36.4 °F 41.0 °F 100% 29.48 in 1.2 mi South 6.9 mph - N/A   Overcast
2:48 PM 41.0 °F 34.7 °F 41.0 °F 100% 29.47 in 0.8 mi SSE 10.4 mph - N/A   Mist
2:56 PM 41.0 °F 33.1 °F 41.0 °F 100% 29.47 in 0.8 mi SSE 15.0 mph - N/A Rain Light Rain
3:23 PM 39.2 °F 29.6 °F 39.2 °F 100% 29.45 in 1.0 mi South 19.6 mph - N/A   Mist
3:25 PM 39.2 °F 29.0 °F 39.2 °F 100% 29.46 in 1.5 mi South 21.9 mph - N/A   Overcast
3:27 PM 39.2 °F 29.3 °F 39.2 °F 100% 29.46 in - South 20.7 mph - N/A   Overcast
3:31 PM 39.2 °F 29.8 °F 39.2 °F 100% 29.46 in 1.5 mi South 18.4 mph - N/A Rain Light Rain
3:39 PM 39.2 °F 30.2 °F 39.2 °F 100% 29.46 in 1.0 mi SSE 17.3 mph - N/A Rain Light Rain
3:50 PM 39.2 °F 29.6 °F 39.2 °F 100% 29.46 in 1.5 mi South 19.6 mph - N/A Rain Light Rain
3:52 PM 39.2 °F 29.6 °F 39.2 °F 100% 29.47 in - South 19.6 mph - N/A Rain Light Rain
3:56 PM 39.9 °F 29.7 °F 39.9 °F 100% 29.47 in 3.0 mi South 23.0 mph - N/A Rain Light Rain
4:03 PM 39.2 °F 29.8 °F 39.2 °F 100% 29.46 in 1.8 mi South 18.4 mph - N/A Rain Light Rain
4:06 PM 39.2 °F 29.8 °F 39.2 °F 100% 29.46 in 1.2 mi South 18.4 mph - N/A Rain Light Rain
4:15 PM 39.2 °F 29.6 °F 39.2 °F 100% 29.46 in 1.0 mi South 19.6 mph - N/A Rain Light Rain
4:28 PM 39.2 °F 29.8 °F 39.2 °F 100% 29.45 in 1.5 mi South 18.4 mph 25.3 mph N/A Rain Light Rain
4:31 PM 39.2 °F 29.8 °F 39.2 °F 100% 29.44 in - South 18.4 mph 25.3 mph N/A   Overcast
4:36 PM 39.2 °F 30.2 °F 39.2 °F 100% 29.44 in 1.5 mi South 17.3 mph - N/A   Overcast
4:40 PM 39.2 °F 29.8 °F 39.2 °F 100% 29.44 in 1.0 mi South 18.4 mph - N/A   Mist
4:46 PM 39.2 °F 29.0 °F 39.2 °F 100% 29.44 in 1.5 mi South 21.9 mph - N/A Rain Light Rain
4:50 PM 39.2 °F 29.3 °F 39.2 °F 100% 29.45 in - South 20.7 mph - N/A   Overcast
4:56 PM 39.9 °F 30.8 °F 39.9 °F 100% 29.45 in 1.2 mi South 18.4 mph 26.5 mph N/A   Overcast
5:18 PM 39.2 °F 29.8 °F 39.2 °F 100% 29.45 in 1.5 mi South 18.4 mph - N/A Rain Light Rain
5:25 PM 39.2 °F 29.8 °F 39.2 °F 100% 29.45 in 1.0 mi South 18.4 mph - N/A   Mist
5:34 PM 39.2 °F 29.6 °F 39.2 °F 100% 29.45 in 0.8 mi South 19.6 mph 25.3 mph N/A Rain Light Rain
5:38 PM 39.2 °F 29.6 °F 39.2 °F 100% 29.43 in 1.2 mi South 19.6 mph 25.3 mph N/A Rain Light Rain
5:40 PM 39.2 °F 29.3 °F 39.2 °F 100% 29.43 in 1.8 mi South 20.7 mph 25.3 mph N/A Rain Light Rain
5:43 PM 39.2 °F 29.8 °F 39.2 °F 100% 29.43 in - South 18.4 mph - N/A Rain Light Rain
5:56 PM 39.0 °F 29.3 °F 39.0 °F 100% 29.43 in 2.5 mi South 19.6 mph 24.2 mph N/A   Overcast
6:04 PM 39.2 °F 29.8 °F 39.2 °F 100% 29.43 in - South 18.4 mph - N/A   Overcast
6:23 PM 39.2 °F 29.6 °F 39.2 °F 100% 29.44 in 1.8 mi South 19.6 mph - N/A   Overcast
6:25 PM 39.2 °F 29.6 °F 39.2 °F 100% 29.44 in 1.5 mi South 19.6 mph 25.3 mph N/A   Overcast
6:31 PM 39.2 °F 28.7 °F 39.2 °F 100% 29.44 in - South 23.0 mph 27.6 mph N/A   Overcast
6:56 PM 39.0 °F 29.3 °F 39.0 °F 100% 29.44 in 2.5 mi South 19.6 mph - N/A   Overcast
7:01 PM 39.2 °F 29.0 °F 39.2 °F 100% 29.45 in 1.5 mi South 21.9 mph 27.6 mph N/A   Overcast
7:09 PM 39.2 °F 29.3 °F 39.2 °F 100% 29.43 in - SSE 20.7 mph 27.6 mph N/A Rain Light Rain
7:19 PM 39.2 °F 30.2 °F 39.2 °F 100% 29.43 in - SSE 17.3 mph - N/A   Overcast
7:34 PM 39.2 °F 29.8 °F 39.2 °F 100% 29.43 in - SSE 18.4 mph - N/A   Overcast
7:54 PM 39.2 °F 29.6 °F 39.2 °F 100% 29.43 in 4.0 mi SSE 19.6 mph - N/A   Overcast
7:56 PM 39.9 °F 31.1 °F 39.9 °F 100% 29.44 in 3.0 mi South 17.3 mph - N/A   Overcast
7:59 PM 39.2 °F 30.5 °F 39.2 °F 100% 29.43 in 1.8 mi South 16.1 mph - N/A   Overcast
8:01 PM 39.2 °F 29.8 °F 39.2 °F 100% 29.44 in 1.2 mi SSE 18.4 mph - N/A   Overcast
8:10 PM 39.2 °F 29.6 °F 39.2 °F 100% 29.43 in 1.5 mi South 19.6 mph - N/A   Overcast
8:13 PM 39.2 °F 29.8 °F 39.2 °F 100% 29.43 in - SSE 18.4 mph - N/A   Overcast
8:28 PM 39.2 °F 30.5 °F 39.2 °F 100% 29.41 in 1.5 mi SSE 16.1 mph - N/A   Overcast
8:30 PM 39.2 °F 30.8 °F 39.2 °F 100% 29.41 in 1.0 mi SSE 15.0 mph - N/A   Mist
8:39 PM 39.2 °F 29.8 °F 39.2 °F 100% 29.40 in 0.8 mi SE 18.4 mph - N/A   Mist
8:50 PM 39.2 °F 29.8 °F 39.2 °F 100% 29.40 in 1.2 mi SSE 18.4 mph - N/A   Overcast
8:52 PM 39.2 °F 29.3 °F 39.2 °F 100% 29.40 in - SE 20.7 mph - N/A   Overcast
8:56 PM 39.9 °F 30.5 °F 39.9 °F 100% 29.40 in 2.0 mi SE 19.6 mph - N/A   Overcast
8:58 PM 39.2 °F 29.6 °F 39.2 °F 100% 29.40 in 1.5 mi SE 19.6 mph - N/A   Overcast
9:01 PM 39.2 °F 29.8 °F 39.2 °F 100% 29.38 in 1.0 mi SE 18.4 mph - N/A   Mist
9:21 PM 39.2 °F 29.0 °F 39.2 °F 100% 29.39 in 0.8 mi SE 21.9 mph - N/A   Mist
9:34 PM 39.2 °F 28.7 °F 39.2 °F 100% 29.38 in 1.2 mi SE 23.0 mph - N/A   Overcast
9:46 PM 39.2 °F 28.7 °F 39.2 °F 100% 29.38 in 1.8 mi SE 23.0 mph - N/A   Overcast
9:56 PM 39.9 °F 29.2 °F 39.9 °F 100% 29.38 in 2.5 mi SE 25.3 mph - N/A   Overcast
10:05 PM 39.2 °F 28.5 °F 39.2 °F 100% 29.37 in 4.0 mi SE 24.2 mph - N/A   Overcast
10:24 PM 39.2 °F 28.5 °F 39.2 °F 100% 29.36 in 1.8 mi SE 24.2 mph - N/A   Overcast
10:31 PM 39.2 °F 28.7 °F 39.2 °F 100% 29.36 in 1.5 mi SE 23.0 mph - N/A   Overcast
10:39 PM 39.2 °F 29.0 °F 39.2 °F 100% 29.35 in 1.8 mi SE 21.9 mph - N/A   Overcast
10:45 PM 41.0 °F 31.4 °F 41.0 °F 100% 29.35 in 1.2 mi SE 21.9 mph - N/A   Overcast
10:56 PM 41.0 °F 31.9 °F 41.0 °F 100% 29.34 in 1.2 mi SE 19.6 mph - N/A   Overcast
11:11 PM 41.0 °F 31.4 °F 41.0 °F 100% 29.34 in 1.2 mi SE 21.9 mph - N/A Rain Light Rain
11:15 PM 41.0 °F 31.4 °F 41.0 °F 100% 29.34 in 1.8 mi ESE 21.9 mph - N/A   Overcast
11:22 PM 41.0 °F 31.6 °F 41.0 °F 100% 29.34 in - ESE 20.7 mph - N/A   Overcast
11:26 PM 41.0 °F 31.1 °F 41.0 °F 100% 29.34 in 1.5 mi SE 23.0 mph - N/A   Overcast
11:48 PM 41.0 °F 31.1 °F 41.0 °F 100% 29.32 in 1.0 mi ESE 23.0 mph - N/A   Mist
11:56 PM 41.0 °F 31.1 °F 41.0 °F 100% 29.32 in 1.0 mi SE 23.0 mph - N/A   Mist